Content
SEND FEEDBACK

Daily
Averages
Monthly
Summary
United States of America

HILLSIDE, NEW JERSEY


Home > North America > United States > New Jersey
Elevation: 40 feet     Latitude: 40 40N     Longitude: 074 14W

WEATHER
 
SELECT A DAY
Number of Records: 191,801;   Date Range: 1/1/95 - 9/30/14
 
SHARE

PRINT THIS DATA

[ ← Previous Day ]
WEATHER ALMANAC - JULY 23, 2013
[ Next Day → ]
[ °C ]   °F
Weather ElementAverageHighLow
Temperature79.6 °F88 °F (1:51 pm)73.4 °F (7:03 am)
Dewpoint71.8 °F75.2 °F (2:36 am)69.1 °F (5:51 pm)
Humidity78.6 %94 % (12:51 am)55 % (1:51 pm)
Barometer29.66 in29.78 in (12:51 am)29.57 in (5:51 pm)
Wind Speed9.6 mph16.1 mph (4:51 pm)
Wind Gust16.1 mph (10:09 am)
Weather ElementAverage
Visibility8.6 mi
Wind DirectionSSW (213.2 °)

Weather ElementTotal
Precipitation0.58 in
Cooling Degree Days15.7 (Base 65)
Growing Degree Days30.7 (Base 50)
Averaged from 34 records on July 23, 2013
WEATHER CONDITIONS BREAKOUT
WIND DIRECTION BREAKOUT
WEATHER BY HOUR - JULY 23, 2013
[ °C ]   °F
Local TimeTemperatureDewpointHumidityBarometerVisibilityWind DirectionWind SpeedGust SpeedPrecipitationEventsConditions
12:51 AM77.0 °F75.0 °F94 %29.78 in7.0 miSE (140°)8.1 mphOvercast
1:51 AM77.0 °F75.0 °F94 %29.75 in6.0 miESE (120°)4.6 mph0.00 inRainLight Rain
2:36 AM77.0 °F75.2 °F94 %29.74 in4.0 miSE (140°)4.6 mph0.01 inRain-ThunderstormLight Thunderstorms and Rain
2:51 AM77.0 °F75.0 °F94 %29.72 in4.0 miESE (120°)3.5 mph0.03 inRain-ThunderstormLight Thunderstorms and Rain
3:47 AM77.0 °F75.2 °F94 %29.71 in4.0 miSSE (150°)6.9 mph0.09 inRain-ThunderstormThunderstorms and Rain
3:51 AM77.0 °F75.0 °F94 %29.70 in4.0 miVariable6.9 mph0.10 inRain-ThunderstormThunderstorms and Rain
4:23 AM77.0 °F75.2 °F94 %29.69 in4.0 miSSE (160°)5.8 mph0.09 inRain-ThunderstormThunderstorms and Rain
4:48 AM75.2 °F73.4 °F94 %29.68 in7.0 miSouth (180°)9.2 mph0.13 inRainLight Rain
4:51 AM75.9 °F73.9 °F94 %29.69 in7.0 miSouth (180°)11.5 mph0.13 inRainLight Rain
5:00 AM75.2 °F71.6 °F89 %29.69 in9.0 miSouth (180°)10.4 mph0.00 inOvercast
5:51 AM73.9 °F71.1 °F91 %29.68 in10.0 miSouth (190°)9.2 mph0.00 inMostly Cloudy
6:51 AM73.9 °F71.1 °F91 %29.68 in10.0 miSSW (210°)9.2 mphMostly Cloudy
7:03 AM73.4 °F71.6 °F94 %29.68 in10.0 miSW (230°)10.4 mphMostly Cloudy
7:35 AM73.4 °F71.6 °F94 %29.68 in10.0 miSW (220°)11.5 mphOvercast
7:51 AM75.0 °F72.0 °F90 %29.68 in10.0 miSW (220°)12.7 mphOvercast
8:51 AM75.9 °F71.1 °F85 %29.66 in10.0 miWSW (250°)10.4 mphOvercast
9:11 AM75.2 °F71.6 °F89 %29.66 in10.0 miWest (260°)9.2 mphOvercast
9:51 AM78.1 °F72.0 °F81 %29.65 in10.0 miWest (280°)11.5 mphOvercast
10:09 AM78.8 °F71.6 °F78 %29.65 in10.0 miWest (260°)9.2 mph16.1 mphMostly Cloudy
10:51 AM81.0 °F71.1 °F72 %29.65 in10.0 miWSW (250°)9.2 mphMostly Cloudy
11:51 AM84.0 °F71.1 °F65 %29.64 in10.0 miWSW (250°)9.2 mphMostly Cloudy
11:57 AM84.2 °F71.6 °F66 %29.63 in10.0 miSW (230°)10.4 mphMostly Cloudy
12:51 PM84.0 °F71.1 °F65 %29.63 in10.0 miWSW (240°)9.2 mphMostly Cloudy
1:51 PM88.0 °F70.0 °F55 %29.61 in10.0 miSW (230°)9.2 mphMostly Cloudy
2:51 PM87.1 °F70.0 °F57 %29.60 in10.0 miSW (220°)12.7 mphMostly Cloudy
3:51 PM88.0 °F70.0 °F55 %29.58 in10.0 miSSW (210°)12.7 mphMostly Cloudy
4:51 PM87.1 °F70.0 °F57 %29.58 in8.0 miWest (280°)16.1 mph0.00 inRainLight Rain
5:51 PM84.9 °F69.1 °F59 %29.57 in10.0 miWSW (240°)16.1 mph0.00 inMostly Cloudy
6:51 PM86.0 °F69.1 °F57 %29.57 in10.0 miWSW (240°)13.8 mphScattered Clouds
7:51 PM84.0 °F71.1 °F65 %29.58 in10.0 miWest (270°)9.2 mphMostly Cloudy
8:51 PM82.9 °F71.1 °F67 %29.60 in10.0 miWNW (290°)9.2 mphScattered Clouds
9:51 PM82.0 °F70.0 °F67 %29.62 in10.0 miWest (280°)8.1 mphMostly Cloudy
10:51 PM81.0 °F69.1 °F67 %29.62 in10.0 miWest (270°)6.9 mphMostly Cloudy
11:51 PM80.1 °F69.1 °F69 %29.63 in10.0 miWest (260°)8.1 mphPartly Cloudy
Hourly data recorded from KEWR, located miles away from Hillside, New Jersey







STORIES FROM OUR PARTNERS